Weather History for KSLC - February, 2013

Change the Weather History Date:

Saturday, February 23, 2013

  Actual Average Record
Temperature  
Mean Temperature 31 °F 37 °F  
Max Temperature 37 °F 46 °F 61 °F (2014)
Min Temperature 25 °F 28 °F 6 °F (1960)
Degree Days  
Heating Degree Days 34 28  
Month to date heating degree days 822 727  
Since 1 July heating degree days 4042 4121  
Cooling Degree Days 0 0  
Month to date cooling degree days 0 0  
Year to date cooling degree days 0 0  
Moisture  
Dew Point 24 °F    
Average Humidity 76    
Maximum Humidity 100    
Minimum Humidity 51    
Precipitation  
Precipitation 0.27 in 0.05 in 0.72 in (1930)
Month to date precipitation 0.67 1.00  
Year to date precipitation 2.19 2.25  
Snow  
Snow 6.20 in 0.40 in 6.40 in (1956)
Month to date snowfall 14.2 9.0  
Since 1 July snowfall 66.6 43.7  
Snow Depth T in    
Sea Level Pressure  
Sea Level Pressure 29.91 in    
Wind  
Wind Speed 12 mph (NW)    
Max Wind Speed 36 mph    
Max Gust Speed 48 mph    
Visibility 4 miles    
Events Fog , Snow    
T = Trace of Precipitation, MM = Missing Value Source: NWS Daily Summary

Daily Weather History Graph

Daily Weather History Graph

Search for Another Location

Airport or City:

Trip Planner

Search our weather history database for the weather conditions in past years. The results will help you decide how hot, cold, wet, or windy it might be!

Date:

Astronomy

Feb. 23, 2013 Rise Set
Actual Time 7:10 AM MST 6:12 PM MST
Civil Twilight 6:42 AM MST 6:40 PM MST
Nautical Twilight 6:10 AM MST 7:12 PM MST
Astronomical Twilight 5:39 AM MST 7:43 PM MST
Moon 4:26 PM MST (2/23) 5:35 AM MST (2/23)
Length of Visible Light 11h 57m
Length of Day
11h 02m
Waxing Gibbous, 95% of the Moon is Illuminated
Feb 23
Waxing Gibbous
Feb 25
Full
Mar 4
Last Quarter
Mar 11
New
Mar 19
First Quarter

Hourly Weather History & Observations

Time (MST) Temp. Windchill Dew Point Humidity Pressure Visibility Wind Dir Wind Speed Gust Speed Precip Events Conditions
12:53 AM 30.0 °F 22.4 °F 21.0 °F 69% 30.03 in 10.0 mi SE 8.1 mph - N/A   Mostly Cloudy
1:53 AM 32.0 °F 22.5 °F 19.9 °F 61% 29.99 in 10.0 mi SSE 12.7 mph - N/A   Overcast
2:53 AM 32.0 °F 21.6 °F 19.0 °F 59% 29.94 in 10.0 mi SSE 15.0 mph - N/A   Overcast
3:53 AM 33.1 °F 23.0 °F 18.0 °F 54% 29.91 in 10.0 mi South 15.0 mph 21.9 mph N/A   Overcast
4:53 AM 33.8 °F 23.2 °F 17.6 °F 52% 29.85 in 10.0 mi South 17.3 mph 23.0 mph N/A   Overcast
5:53 AM 33.1 °F 23.0 °F 17.1 °F 52% 29.82 in 10.0 mi SSE 15.0 mph - N/A   Overcast
6:53 AM 35.1 °F 23.5 °F 19.0 °F 52% 29.79 in 10.0 mi South 21.9 mph 28.8 mph N/A   Overcast
7:53 AM 34.0 °F 22.7 °F 19.0 °F 54% 29.74 in 10.0 mi South 19.6 mph 24.2 mph N/A   Overcast
8:53 AM 36.0 °F 25.6 °F 19.9 °F 52% 29.70 in 10.0 mi SSE 18.4 mph 27.6 mph 0.00 in   Overcast
9:22 AM 35.6 °F 23.4 °F 24.8 °F 65% 29.77 in 2.5 mi West 25.3 mph 48.3 mph 0.00 in Snow Light Snow
9:28 AM 33.8 °F 21.3 °F 26.6 °F 75% 29.79 in 0.8 mi West 24.2 mph 38.0 mph 0.00 in Snow Light Snow
9:34 AM 32.0 °F 19.2 °F 28.4 °F 87% 29.80 in 0.2 mi WNW 23.0 mph 29.9 mph 0.00 in Fog , Snow Snow
9:42 AM 30.2 °F 18.1 °F 28.4 °F 93% 29.80 in 0.2 mi WNW 18.4 mph 28.8 mph 0.01 in Fog , Snow Snow
9:53 AM 30.0 °F 18.3 °F 28.9 °F 96% 29.86 in 0.2 mi WNW 17.3 mph 24.2 mph 0.03 in Fog , Snow Heavy Snow
10:08 AM 30.2 °F 21.3 °F 28.4 °F 93% 29.82 in 0.2 mi NW 10.4 mph 21.9 mph 0.03 in Fog , Snow Heavy Snow
10:25 AM 30.2 °F 21.9 °F 28.4 °F 93% 29.82 in 0.5 mi North 9.2 mph - 0.08 in Fog , Snow Snow
10:39 AM 30.2 °F 21.9 °F 28.4 °F 93% 29.83 in 0.2 mi NNW 9.2 mph - 0.10 in Fog , Snow Heavy Snow
10:49 AM 30.2 °F 23.4 °F 28.4 °F 93% 29.83 in 0.5 mi NW 6.9 mph 19.6 mph 0.11 in Snow Light Snow
10:50 AM 30.2 °F 24.3 °F 28.4 °F 93% 29.83 in 0.5 mi NW 5.8 mph 19.6 mph N/A Snow Light Snow
11:00 AM 30.2 °F 21.9 °F 28.4 °F 93% 29.83 in 0.5 mi WNW 9.2 mph - 0.01 in Fog , Snow Snow
11:07 AM 28.4 °F 18.0 °F 28.4 °F 100% 29.83 in 0.2 mi NW 12.7 mph 17.3 mph 0.03 in Fog , Snow Heavy Snow
11:32 AM 28.4 °F 17.5 °F 26.6 °F 93% 29.84 in 0.5 mi West 13.8 mph - 0.06 in Fog , Snow Snow
11:46 AM 28.4 °F 17.0 °F 28.4 °F 100% 29.85 in 0.5 mi West 15.0 mph - 0.07 in Fog , Snow Snow
11:53 AM 28.9 °F 18.2 °F 28.0 °F 96% 29.89 in 0.5 mi West 13.8 mph - 0.07 in Snow Light Snow
12:30 PM 28.4 °F 15.1 °F 24.8 °F 86% 29.86 in 1.0 mi West 20.7 mph 26.5 mph 0.01 in Snow Light Snow
12:43 PM 28.4 °F 15.4 °F 24.8 °F 86% 29.86 in 2.0 mi West 19.6 mph 26.5 mph 0.01 in Snow Light Snow
12:53 PM 28.9 °F 15.1 °F 21.0 °F 72% 29.90 in 2.5 mi WNW 23.0 mph 32.2 mph 0.01 in Snow Light Snow
1:00 PM 28.4 °F 15.1 °F 21.2 °F 74% 29.86 in 4.0 mi WNW 20.7 mph 31.1 mph 0.00 in   Overcast
1:12 PM 28.4 °F 14.4 °F 19.4 °F 69% 29.87 in 1.5 mi WNW 23.0 mph 35.7 mph 0.00 in Snow Blowing Snow
1:17 PM 28.4 °F 14.1 °F 21.2 °F 74% 29.87 in 3.0 mi WNW 24.2 mph 33.4 mph 0.00 in   Mostly Cloudy
1:53 PM 28.9 °F 17.7 °F 21.0 °F 72% 29.93 in 10.0 mi NW 15.0 mph 21.9 mph 0.00 in   Mostly Cloudy
2:53 PM 30.0 °F 19.5 °F 19.0 °F 64% 29.93 in 10.0 mi WNW 13.8 mph - N/A   Mostly Cloudy
3:22 PM 28.4 °F 15.1 °F 21.2 °F 74% 29.90 in 0.5 mi WNW 20.7 mph 26.5 mph 0.00 in Snow Light Snow
3:29 PM 26.6 °F 11.1 °F 23.0 °F 86% 29.90 in 0.2 mi WNW 26.5 mph 38.0 mph 0.00 in Fog , Snow Heavy Snow
3:39 PM 26.6 °F 11.4 °F 24.8 °F 93% 29.91 in 0.2 mi WNW 25.3 mph 32.2 mph 0.00 in Fog , Snow Heavy Snow
3:53 PM 26.1 °F 12.3 °F 24.1 °F 92% 29.95 in 0.2 mi NW 19.6 mph 29.9 mph 0.00 in Fog , Snow Heavy Snow
4:00 PM 26.6 °F 14.3 °F 24.8 °F 93% 29.91 in 0.5 mi NW 16.1 mph 26.5 mph 0.01 in Fog , Snow Snow
4:08 PM 26.6 °F 15.2 °F 23.0 °F 86% 29.91 in 1.8 mi NNW 13.8 mph 21.9 mph 0.01 in Snow Light Snow
4:11 PM 26.6 °F 15.7 °F 23.0 °F 86% 29.91 in 5.0 mi NNW 12.7 mph - 0.01 in Snow Light Snow
4:32 PM 26.6 °F 16.2 °F 24.8 °F 93% 29.91 in 9.0 mi North 11.5 mph - 0.01 in   Overcast
4:49 PM 26.6 °F 19.1 °F 24.8 °F 93% 29.91 in 10.0 mi NNW 6.9 mph - 0.01 in   Overcast
4:53 PM 27.0 °F 20.5 °F 24.1 °F 89% 29.95 in 10.0 mi North 5.8 mph - 0.01 in   Overcast
5:05 PM 26.6 °F 20.0 °F 23.0 °F 86% 29.91 in 7.0 mi Variable 5.8 mph - N/A   Overcast
5:15 PM 28.4 °F 20.4 °F 21.2 °F 74% 29.92 in 1.0 mi North 8.1 mph - 0.00 in Snow Light Snow
5:22 PM 26.6 °F 21.2 °F 23.0 °F 86% 29.92 in 0.8 mi North 4.6 mph - 0.01 in Snow Light Snow
5:40 PM 26.6 °F - 23.0 °F 86% 29.92 in 2.0 mi Calm Calm - 0.01 in Snow Light Snow
5:46 PM 26.6 °F - 23.0 °F 86% 29.93 in 7.0 mi Calm Calm - 0.01 in Snow Light Snow
5:53 PM 27.0 °F 23.0 °F 23.0 °F 85% 29.97 in 10.0 mi NNE 3.5 mph - 0.01 in   Overcast
5:58 PM 26.6 °F - 21.2 °F 80% 29.93 in 0.8 mi Calm Calm - 0.00 in Snow Light Snow
6:15 PM 26.6 °F 22.6 °F 24.8 °F 93% 29.94 in 0.8 mi NNW 3.5 mph - 0.01 in Snow Light Snow
6:27 PM 26.6 °F 21.2 °F 24.8 °F 93% 29.94 in 0.8 mi NW 4.6 mph - N/A Snow Light Snow
6:34 PM 26.6 °F 22.6 °F 24.8 °F 93% 29.95 in 0.8 mi WNW 3.5 mph - 0.02 in Snow Light Snow
6:53 PM 26.1 °F 20.5 °F 24.1 °F 92% 29.99 in 2.5 mi NW 4.6 mph - 0.02 in Snow Light Snow
7:01 PM 26.6 °F 20.0 °F 24.8 °F 93% 29.96 in 1.5 mi NW 5.8 mph - 0.00 in Snow Light Snow
7:12 PM 26.6 °F 21.2 °F 24.8 °F 93% 29.96 in 1.8 mi NW 4.6 mph - 0.00 in Snow Light Snow
7:17 PM 26.6 °F 21.2 °F 24.8 °F 93% 29.96 in 2.0 mi NW 4.6 mph - 0.01 in Snow Light Snow
7:37 PM 26.6 °F - 24.8 °F 93% 29.96 in 3.0 mi Calm Calm - 0.01 in Snow Light Snow
7:45 PM 26.6 °F - 24.8 °F 93% 29.96 in 5.0 mi Calm Calm - 0.01 in Snow Light Snow
7:53 PM 26.1 °F - 24.1 °F 92% 30.01 in 6.0 mi Calm Calm - 0.01 in Snow Light Snow
8:03 PM 26.6 °F - 24.8 °F 93% 29.96 in 1.8 mi Calm Calm - N/A Snow Light Snow
8:14 PM 26.6 °F - 24.8 °F 93% 29.96 in 3.0 mi Calm Calm - 0.00 in Snow Light Snow
8:53 PM 25.0 °F - 24.1 °F 96% 30.00 in 7.0 mi Calm Calm - 0.00 in Snow Light Snow
9:32 PM 26.6 °F - 24.8 °F 93% 29.97 in 2.5 mi Calm Calm - 0.00 in Snow Light Snow
9:47 PM 26.6 °F 22.6 °F 24.8 °F 93% 29.97 in 5.0 mi NNW 3.5 mph - 0.00 in Snow Light Snow
9:48 PM 26.1 °F 21.9 °F 24.1 °F 92% 30.03 in 6.0 mi NNW 3.5 mph - 0.00 in Snow Light Snow
10:53 PM 26.1 °F 17.6 °F 23.0 °F 88% 30.04 in 4.0 mi NNW 8.1 mph - 0.00 in Snow Light Snow
11:29 PM 26.6 °F 18.2 °F 24.8 °F 93% 29.99 in 7.0 mi WNW 8.1 mph - 0.00 in Snow Light Snow
11:43 PM 26.6 °F 20.0 °F 24.8 °F 93% 29.99 in 2.0 mi WNW 5.8 mph - 0.00 in Snow Light Snow
11:53 PM 26.1 °F 19.4 °F 24.1 °F 92% 30.04 in 3.0 mi WNW 5.8 mph - 0.00 in Snow Light Snow